www.pogodaiklimat.ru

Погода и климат >> Архив погоды >> Украина >> Одесса


АРХИВ ПОГОДЫ в Одессе

Время (UTC), дата Ветер
(напр.,м/с)
 
Видим.   Явления Облачность Т
(С)
Тd
(С)
f
(%)
Тe
(С)
Тes
(С)
Комфортность P
(гПа)
Po
(гПа)
Тmin
(С)
Tmax
(С)
R
(мм)
R24
(мм)
S
(см)
21 8.12 З 2 7000 м дымка 3/0
[Ci fib]
+4.0 +2.4 89 +1 +1 по сезону 1014.5 1009.3
00 9.12 З 2 10 км дымка ясно +2.8 +0.4 84 -0 -0 по сезону 1014.2 1008.9
03 9.12 ЮЗ 3 9000 м дымка ясно +3.7 +1.7 87 -0 -0 по сезону 1013.3 1008.1
06 9.12 ЮЗ 3 18 км 4/0
[Ci fib]
+4.7 +2.2 84 +1 +1 по сезону 1012.8 1007.6 +2.0
09 9.12 ЮЗ 1 15 км 4/0
[Ac trans]
+8.6 +4.6 76 +8 +10 тепло 1012.0 1006.9
12 9.12 Ю 3 18 км 6/0
[Ci fib]
+9.7 +6.8 82 +7 +9 тепло 1009.9 1004.8
15 9.12 ЮЗ 2 6000 м дымка 9/6 330 м
[Sc Ac und]
+9.3 +8.1 92 +8 +8 тепло 1009.1 1004.0
18 9.12 ЮЗ 3 7000 м дымка 10/10 150 м
[St]
+9.4 +8.5 94 +7 +7 тепло 1008.0 1002.9 +10.5
21 9.12 Ю 4 8000 м дымка 6/6 150 м
[St]
+9.3 +8.4 94 +6 +6 тепло 1007.0 1001.9
00 10.12 ЮЗ 2 10 км ясно +9.6 +8.0 90 +8 +8 тепло 1005.4 1000.3
03 10.12 ЮЗ 4 10 км 10/10 480 м
[Sc]
+10.0 +8.3 89 +7 +7 тепло 1003.6 998.5
06 10.12 ЮЗ 3 9000 м дымка 10/8 330 м
[Sc Ac und]
+10.0 +8.4 90 +8 +8 тепло 1002.9 997.8 +8.8
09 10.12 ЮЗ 2 8000 м слабый ливневой дождь 10/8 600 м
[Cb calv Ac trans]
+9.7 +8.5 92 +8 +8 тепло 1000.8 995.7
12 10.12 З 4 13 км слабый ливневой дождь 10/8 300 м
[Cb calv Ac und]
+2.3 +1.4 94 -3 -3 по сезону 1001.2 996.0
15 10.12 З 8 12 км слабый ливневой снег 10/10 300 м
[Cb calv]
+0.8 -1.0 88 -7 -7 холодно 1006.6 1001.3
18 10.12 З 3 14 км {ливн. осадки} 9/5 1470 м
[Sc Ac trans]
+1.1 -1.2 85 -3 -3 по сезону 1011.3 1006.0 +10.7 7
21 10.12 З 3 22 км 4/0
[Ci fib]
+0.5 -1.8 85 -4 -4 по сезону 1014.5 1009.2
00 11.12 ЮЗ 2 24 км 3/0
[Ci fib]
+0.7 -1.3 86 -3 -3 по сезону 1015.1 1009.8
03 11.12 ЮЗ 3 30 км 10/0
[Ac As]
+3.3 -2.1 68 -0 -0 по сезону 1014.8 1009.5
06 11.12 ЮЗ 3 40 км 8/0
[Ac trans Ci fib]
+3.5 -2.5 65 0 0 по сезону 1014.7 1009.5 +0.5
09 11.12 ЮЗ 2 50 км 10/0
[Ac trans Ci fib]
+7.3 -0.6 57 +6 +7 тепло 1015.4 1010.2
12 11.12 ЮЗ 3 50 км 9/0
[Ac trans]
+8.3 -1.8 49 +6 +7 тепло 1015.2 1010.0
15 11.12 ЮЗ 3 29 км 8/0
[Ac trans Ci fib]
+8.2 +0.7 59 +6 +6 тепло 1014.8 1009.6
18 11.12 ЮЗ 3 45 км 9/0
[Ci fib]
+8.1 +2.1 66 +6 +6 тепло 1015.5 1010.3 +9.3
21 11.12 ЮЗ 2 40 км 9/0
[Ci fib]
+8.2 +2.0 65 +7 +7 тепло 1014.9 1009.7
00 12.12 ЮЗ 2 45 км 4/0
[Ci fib]
+8.1 +4.3 77 +6 +6 тепло 1014.1 1008.9
03 12.12 ЮЗ 3 25 км 9/0
[Ci fib]
+8.7 +4.1 73 +6 +6 тепло 1013.7 1008.6
06 12.12 ЮЗ 3 35 км 9/0
[Ci]
+7.3 +2.8 73 +5 +5 тепло 1014.6 1009.4 +7.1
09 12.12 ЮЗ 3 24 км 10/0
[Ac trans Ci fib]
+10.6 +4.8 67 +9 +10 тепло 1014.6 1009.5
12 12.12 Ю 2 15 км 10/0
[Ci fib]
+12.3 +5.7 64 +12 +13 тепло 1013.6 1008.5
15 12.12 Ю 1 15 км 10/0
[Ci fib]
+8.9 +6.3 84 +8 +8 тепло 1014.6 1009.5
18 12.12 З 1 13 км ясно +7.3 +4.4 82 +6 +6 тепло 1015.3 1010.1 +13.1
21 12.12 З 2 19 км ясно +6.9 +3.0 76 +5 +5 тепло 1015.8 1010.6
00 13.12 ЮЗ 1 12 км ясно +6.0 +3.2 82 +5 +5 тепло 1015.3 1010.1
03 13.12 ЮЗ 1 7000 м дымка ясно +4.2 +2.7 90 +3 +3 тепло 1014.9 1009.7
06 13.12 С 1 2100 м дымка 10/0
[Cs]
+3.9 +3.0 94 +2 +2 тепло 1015.1 1009.9 +3.1 1
09 13.12 СВ 1 3800 м дымка 10/6 90 м
[St Ac und]
+6.3 +4.9 91 +5 +5 тепло 1015.2 1010.0
12 13.12 Ю 1 800 м туман 10/0
[Ac und Ci fib]
+7.6 +7.2 97 +7 +8 тепло 1013.7 1008.5
15 13.12 ЮЗ 1 5000 м дымка {туман} 8/0
[Ci fib]
+7.1 +5.4 89 +6 +6 тепло 1013.5 1008.3
18 13.12 З 2 4300 м дымка {туман} 10/0
[Ci sp]
+6.3 +5.3 93 +4 +4 тепло 1013.1 1007.9 +8.0
21 13.12 З 2 5000 м дымка 10/0
[Ci sp]
+4.0 +2.5 90 +1 +1 по сезону 1012.7 1007.5
00 14.12 З 1 1200 м дымка 10/10 60 м
[St]
+3.5 +2.6 94 +2 +2 тепло 1012.1 1006.9
03 14.12 СЗ 1 3900 м слабый дождь 10/8 300 м
[Frnb As op]
+3.6 +2.9 95 +2 +2 тепло 1011.1 1005.9
06 14.12 штиль 0 2800 м слабый дождь 10/8 300 м
[Frnb As op]
+3.1 +2.4 95 +2 +2 тепло 1011.1 1005.9 +3.0 2
09 14.12 З 1 4900 м дымка {дождь, морось} 10/10 180 м
[Sc]
+4.9 +4.0 94 +3 +3 тепло 1011.1 1005.9
12 14.12 З 3 9000 м дымка {дождь, морось} 10/10 240 м
[St]
+5.5 +3.5 87 +2 +2 по сезону 1010.2 1005.0
15 14.12 Ю 1 4300 м дымка 10/10 150 м
[St]
+5.0 +3.8 92 +4 +4 тепло 1010.8 1005.6
18 14.12 ЮЗ 1 2700 м дымка 10/10 90 м
[St]
+4.6 +3.7 94 +3 +3 тепло 1011.5 1006.3 +6.8 0.5
21 14.12 ЮЗ 1 4500 м дымка 10/10 90 м
[St]
+4.3 +3.6 95 +3 +3 тепло 1010.8 1005.6
00 15.12 З 1 2600 м дымка 10/10 120 м
[St]
+4.7 +3.7 93 +3 +3 тепло 1010.9 1005.7
03 15.12 Ю 2 2900 м слабый дождь 10/8 300 м
[Frnb As op]
+5.2 +4.3 94 +2 +2 тепло 1010.2 1005.0
06 15.12 ЮЗ 1 5000 м дымка {дождь} 6/0
[Ac trans Ci fib]
+6.0 +5.0 93 +5 +5 тепло 1011.0 1005.8 +4.2 0.3
09 15.12 ЮЗ 2 27 км 3/0
[Ac trans]
+10.0 +4.9 71 +9 +11 тепло 1011.2 1006.1
12 15.12 ЮЗ 2 30 км 6/0
[Ac trans Ci fib]
+10.6 +6.6 76 +9 +10 тепло 1009.9 1004.8
15 15.12 ЮЗ 1 29 км 10/0
[Ac trans Ci fib]
+9.8 +6.4 79 +9 +9 тепло 1011.0 1005.9
18 15.12 ЮЗ 4 900 м дымка 10/10 30 м
[St]
+8.4 +7.3 93 +5 +5 тепло 1010.9 1005.8 +11.0

 

Местоположение метеостанции Одесса (Одесская область, Украина): широта 46.43 долгота 30.77 высота над уровнем моря 42 м.

В архиве по умолчанию представлена погода в Одессе за последнюю неделю. Архивные данные за месяц целиком и за предыдущие месяцы, начиная с января 2011 года, Вы можете получить, выбрав интересующий диапазон дат из раскрывающегося списка и нажав кнопку "Ввод!".

Внимание! Время в таблицах - всемирное. Для получения местного времени необходимо прибавить поправку, которая в Одессе равна 2 ч.

Смотрите также архив погоды в соседних городах и на ближайших метеорологических станциях:

Погода в Ильичёвске (Одесская область, Украина) (6 км)
Погода в Белгород-Днестровском (Одесская область, Украина) (41 км)
Погода в Очакове (Николаевская область, Украина) (64 км)
Погода в Сербке (Одесская область, Украина) (66 км)
Погода в Раздельной (Одесская область, Украина) (70 км)
Погода в Заставе (Одесская область, Украина) (72 км)
Погода в Сарате (Одесская область, Украина) (96 км)
Погода в Штефан Водэ (Молдова) (99 км)
Погода в Тирасполе (Молдова) (103 км)
Погода в Николаеве (Николаевская область, Украина) (112 км)

Пояснения к столбцам:

Ветер - указаны скорость ветра в м/с - средняя за 10 мин, порывы в срок и между сроками (в фигурных скобках) и направление, откуда дует ветер: С - северный, СВ - северо-восточный, В - восточный, ЮВ - юго-восточный, Ю - южный, ЮЗ - юго-западный, З - западный, СЗ - северо-западный.
Видимость - горизонтальная дальность видимости в метрах или километрах. При видимости от 1 до 10 км при отсутствии осадков обычно наблюдается дымка, при ухудшении видимости до 1 км и менее - туман. В сухую погоду видимость может ухудшаться дымом, пылью или мглою.
Явления - указаны атмосферные явления, наблюдавшиеся в срок или в последний час перед сроком; фигурными скобками обозначены явления, наблюдавшиеся между сроками (за 1-3 часа до срока); квадратными скобками обозначены град или гололедные отложения с указанием их диаметра в мм.
Облачность - указаны через наклонную черту общая и нижняя облачность в баллах и высота нижней границы облаков в метрах; квадратными скобками обозначены формы облаков: Ci - перистые, Cs - перисто-слоистые, Cc - перисто-кучевые, Ac - высококучевые, As - высокослоистые, Sc - слоисто-кучевые, Ns - слоисто-дождевые, Cu - кучевые, Cb - кучево-дождевые. Подробнее классификацию облаков см. в Атласе облаков (PDF).
T - Температура воздуха - температура, измеренная на высоте 2 м над землей.
Td - Температура точки росы - температура, при понижении до которой содержащийся в воздухе водяной пар достигнет насыщения.
f - Относительная влажность воздуха - влажноcть воздуха, измеренная на высоте 2 м над землей.
Te - Эффективная температура - температура, которую ощущает одетый по сезону человек в тени. Характеристика душности погоды. При расчете учитывается влияние влажности воздуха и скорости ветра на теплоощущения человека.
Tes - Эффективная температура на солнце - температура, которую ощущает человек, с поправкой на солнечный нагрев. Характеристика знойности погоды. Зависит от высоты солнца над горизонтом, облачности и скорости ветра. Ночью, в пасмурную погоду, а также при ветре 12 м/с и более поправка равна нулю.
P - Атмосферное давление - приведенное к уровню моря атмосферное давление.
Po - Атмосферное давление - измеренное на уровне метеостанции атмосферное давление.
Tmin - Минимальная температура - минимум температуры воздуха на высоте 2 м над землей.
Tmax - Максимальная температура - максимум температуры воздуха на высоте 2 м над землей.
R - Количество осадков - Количество выпавших осадков за период времени, мм. При наведении курсора мыши на число - период времени, за который выпало указанное количество осадков.
R24 - Количество осадков - Количество выпавших осадков за 24 часа, мм.
S - Снежный покров - Высота снежного покрова, см. При наведении курсора мыши на число - состояние снежного покрова и степень покрытия местности в баллах.